[[{"header":{"parameterUnit":"m.s-1","parameterCategory":2,"la1":30.2991,"la2":30.254,"lo1":-89.0895,"lo2":-89.0444,"dy":0.0017,"dx":0.0017,"nx":28,"ny":28,"refTime":"2025-09-17T03:00:00:Z","depth":"0","parameterNumber":2,"parameterNumberName":"U-component_of_CURRENTS"},"data":[0,0,0,0,0,0,0,0,0,0,0,0,0,0,0,0,0,0,0,0,0,0,0,0,0,0,0,0,0,0,0,0,0,0,0,0,0,0,0,0,0,0,0,0,0,0,0,0,0,0,0,0,0,0,0,0,0,0,0.3132,0.3132,0,0.3141,0.314,0.314,0.3118,0.3118,0.3118,0.3118,0.3045,0.3043,0.3042,0,0,0,0,0,0,0,0,0,0,0,0,0,0.3038,0.304,0.3132,0.3133,0.3133,0.3141,0.314,0.314,0.3118,0.3118,0.3118,0.3118,0.3046,0.3044,0.3042,0,0,0,0,0,0,0,0,0,0,0,0,0,0.306,0.304,0.3132,0.3128,0.3128,0.3141,0.314,0.314,0.3118,0.3118,0.3118,0.3117,0.3047,0.3044,0.3041,0.3029,0,0,0.3033,0.3032,0,0,0,0,0,0,0,0,0.3059,0.3063,0.3128,0.3128,0.3128,0.3133,0.3081,0.31,0.3118,0.3115,0.3118,0.3117,0.3071,0.3067,0.3061,0.3025,0.3022,0.3033,0.3031,0.303,0.3029,0,0,0,0,0,0,0,0.3058,0.3062,0.3129,0.3129,0.3129,0.3106,0.3109,0.3084,0.3088,0.3116,0.3116,0.3126,0.307,0.3064,0.3059,0.3021,0.3033,0.303,0.3029,0.3028,0.2975,0.2975,0,0,0,0,0,0,0.3072,0.3061,0.3129,0.313,0.3099,0.3108,0.3111,0.3127,0.309,0.3087,0.3126,0.3125,0.3069,0.3062,0.3056,0.3046,0.303,0.3027,0.3026,0.2974,0.2975,0.2975,0,0,0,0,0,0,0.307,0.3079,0.3129,0.31,0.3106,0.3111,0.3128,0.3127,0.3124,0.31,0.3094,0.3126,0.3068,0.306,0.3044,0.3042,0.3026,0.3024,0.2974,0.2974,0.2975,0.302,0,0,0,0,0,0,0.3068,0.3078,0.3087,0.3101,0.3108,0.314,0.3129,0.3128,0.3134,0.3132,0.3098,0.3091,0.3067,0.3048,0.3041,0.3038,0.3022,0.2974,0.2974,0.2975,0.3018,0.3022,0.3025,0,0,0,0,0,0.3064,0.3078,0.3088,0.3096,0.3124,0.3141,0.3141,0.314,0.3135,0.3135,0.3117,0.3092,0.3046,0.3047,0.3038,0.3035,0.2974,0.2974,0.2975,0.3017,0.3021,0.3025,0,0,0,0,0,0,0.3043,0.3079,0.3089,0.3114,0.3131,0.314,0.3142,0.3144,0.313,0.3128,0.3097,0.3089,0.3077,0.305,0.3052,0.3021,0.3004,0.3003,0.3039,0.3043,0.3046,0.3097,0.3019,0,0,0,0,0,0.3046,0.3065,0.3095,0.3115,0.3125,0.3134,0.3139,0.3145,0.3142,0.3136,0.3114,0.3089,0.3072,0.3054,0.3036,0.3015,0.3091,0.3006,0.301,0.3013,0.3049,0.318,0.3201,0.2976,0.2976,0.2976,0,0,0.3046,0.3067,0.3079,0.3112,0.3121,0.3136,0.3135,0.3151,0.3161,0.3129,0.3122,0.3104,0.3072,0.3057,0.3047,0.3032,0.3116,0.3013,0.3016,0.3051,0.3183,0.3206,0.3226,0.2977,0.2977,0.2977,0,0,0.3049,0.3073,0.3087,0.3102,0.313,0.3139,0.3148,0.3162,0.3164,0.3159,0.3146,0.3144,0.3091,0.309,0.3076,0.3088,0.3138,0.3059,0.3106,0.3232,0.3254,0.3273,0.341,0.3442,0.305,0.305,0.305,0,0.3046,0.3073,0.3092,0.3107,0.3121,0.3143,0.3158,0.3167,0.3173,0.3184,0.316,0.3148,0.3116,0.3131,0.3131,0.31,0.319,0.3092,0.3243,0.3264,0.3283,0.3419,0.3454,0.3052,0.3052,0.3052,0.3051,0,0.3061,0.3079,0.3088,0.3116,0.3131,0.3151,0.3175,0.3187,0.3187,0.3201,0.3221,0.3202,0.3204,0.3177,0.3152,0.325,0.3278,0.3245,0.3245,0.331,0.3447,0.3482,0.3055,0.3055,0.3054,0.3053,0,0,0.3051,0.3093,0.3091,0.3097,0.314,0.3145,0.3179,0.3213,0.3237,0.3247,0.3295,0.327,0.3289,0.328,0.326,0.3349,0.355,0.3357,0.3362,0.3516,0.3867,0.3779,0.3809,0.3556,0.3562,0.3566,0.3914,0,0.3054,0.3073,0.3102,0.3113,0.3121,0.3158,0.3183,0.3218,0.3246,0.3298,0.3328,0.3357,0.3319,0.3329,0.3422,0.3513,0.3643,0.3461,0.3762,0.3772,0.3705,0.3846,0.3667,0.3952,0.3949,0.3954,0.3959,0,0.3048,0.3062,0.3075,0.3103,0.3112,0.3127,0.3173,0.3205,0.3297,0.3326,0.3397,0.3436,0.3559,0.3519,0.3778,0.367,0.3796,0.3873,0.3887,0.3821,0.3749,0.3882,0.4016,0.3869,0.4013,0.4009,0.4005,0,0.2998,0.3033,0.3037,0.3046,0.309,0.3104,0.3138,0.3209,0.3249,0.3373,0.3441,0.3571,0.3676,0.3838,0.3987,0.3918,0.43,0.4216,0.4274,0.4269,0.4184,0.416,0.4231,0.4464,0.4463,0.4462,0.4461,0,0.2972,0.2968,0.3009,0.3002,0.3013,0.3064,0.31,0.3152,0.3265,0.3364,0.3465,0.3594,0.3774,0.3983,0.4091,0.4307,0.4402,0.4348,0.4371,0.4189,0.4163,0.4079,0.4011,0.4475,0.4472,0.447,0.4467,0,0.2897,0.2932,0.2927,0.2968,0.2983,0.2984,0.3068,0.3118,0.3231,0.3384,0.3446,0.3684,0.3941,0.411,0.441,0.4452,0.4515,0.4696,0.4471,0.4458,0.4276,0.4216,0.4242,0.4124,0.4814,0.4814,0.4814,0,0.2852,0.2846,0.2877,0.2887,0.2903,0.293,0.2977,0.308,0.3174,0.3446,0.3554,0.3832,0.4015,0.4391,0.4509,0.4711,0.4567,0.4684,0.4486,0.4296,0.425,0.4062,0.3946,0.4421,0.4417,0.4415,0.4413,0,0.2764,0.2781,0.2787,0.2834,0.2866,0.2901,0.2999,0.3052,0.3244,0.3381,0.364,0.3795,0.4135,0.4256,0.4494,0.4581,0.4402,0.4633,0.4516,0.4031,0.3761,0.3645,0.417,0.439,0.4392,0.4394,0.4395,0.4396,0.27,0.2703,0.2753,0.279,0.2833,0.2907,0.2928,0.3061,0.3188,0.3411,0.363,0.3814,0.403,0.4288,0.4348,0.4282,0.4261,0.4176,0.4161,0.4019,0.3757,0.4224,0.4386,0.4388,0.439,0.4392,0.4393,0,0.2665,0.2703,0.2726,0.2789,0.2836,0.2878,0.2979,0.3006,0.3131,0.3343,0.3524,0.3689,0.3809,0.3928,0.3957,0.384,0.367,0.3745,0.3446,0.3386,0.3901,0.3725,0.365,0.365,0.365,0.365,0.365,0.365,0.2658,0.2696,0.2733,0.2801,0.2839,0.288,0.2917,0.2943,0.3048,0.314,0.3209,0.333,0.3503,0.3649,0.3544,0.3467,0.3186,0.3066,0.3069,0.3414,0.3451,0.3485,0.3301,0.3138,0.3138,0.2385,0.2379,0.2375]},{"header":{"parameterUnit":"m.s-1","parameterCategory":2,"la1":30.2991,"la2":30.254,"lo1":-89.0895,"lo2":-89.0444,"dy":0.0017,"dx":0.0017,"nx":28,"ny":28,"refTime":"2025-09-17T03:00:00:Z","depth":"0","parameterNumber":3,"parameterNumberName":"V-component_of_CURRENTS"},"data":[0,0,0,0,0,0,0,0,0,0,0,0,0,0,0,0,0,0,0,0,0,0,0,0,0,0,0,0,0,0,0,0,0,0,0,0,0,0,0,0,0,0,0,0,0,0,0,0,0,0,0,0,0,0,0,0,0,0,0.0178,0.0177,0,0.0117,0.0116,0.0115,0.006,0.006,0.0059,0.0059,-0.0045,-0.0047,-0.005,0,0,0,0,0,0,0,0,0,0,0,0,0,0.0196,0.0196,0.0178,0.0177,0.0176,0.0117,0.0116,0.0115,0.006,0.0059,0.0059,0.0058,-0.0045,-0.0047,-0.005,0,0,0,0,0,0,0,0,0,0,0,0,0,0.0166,0.0196,0.0178,0.0143,0.0139,0.0117,0.0116,0.0115,0.006,0.0059,0.0059,0.0058,-0.0044,-0.0047,-0.005,-0.0056,0,0,-0.0061,-0.0062,0,0,0,0,0,0,0,0,0.0168,0.0165,0.0149,0.0145,0.0141,0.0097,0.0085,0.0056,0.006,0.0089,0.0059,0.0058,-0.0,-0.0007,-0.0019,-0.0061,-0.0065,-0.0061,-0.0063,-0.0065,-0.0066,0,0,0,0,0,0,0,0.017,0.0167,0.0152,0.0148,0.0144,0.0114,0.0109,0.0079,0.0047,0.0086,0.0082,0.0078,-0.0003,-0.0015,-0.0022,-0.0067,-0.0061,-0.0064,-0.0066,-0.0068,-0.0129,-0.0128,0,0,0,0,0,0,0.0184,0.0169,0.0154,0.015,0.0155,0.0114,0.0109,0.011,0.0048,0.0039,0.0079,0.0076,-0.0009,-0.0017,-0.0025,-0.0019,-0.0065,-0.0068,-0.007,-0.0129,-0.0129,-0.0128,0,0,0,0,0,0,0.0185,0.0184,0.0156,0.0159,0.0154,0.0115,0.0117,0.011,0.0098,0.0044,0.0033,0.0076,-0.001,-0.0021,-0.0052,-0.0024,-0.0069,-0.0073,-0.013,-0.0129,-0.0128,-0.0018,0,0,0,0,0,0,0.0186,0.0185,0.0191,0.0161,0.0154,0.0151,0.0118,0.0109,0.0098,0.0093,0.0038,0.0027,-0.0011,-0.0046,-0.0055,-0.003,-0.0075,-0.013,-0.0129,-0.0128,-0.0022,-0.0013,-0.0006,0,0,0,0,0,0.0187,0.021,0.0192,0.019,0.0165,0.0151,0.0145,0.0114,0.0099,0.0099,0.0058,0.0029,-0.0047,-0.0049,-0.0059,-0.0034,-0.0131,-0.013,-0.0129,-0.0025,-0.0015,-0.0006,0,0,0,0,0,0,0.023,0.0206,0.0185,0.0201,0.0177,0.0143,0.0146,0.0122,0.0091,0.0088,0.0032,0.0019,0.0001,-0.0036,-0.0036,-0.0052,-0.0093,-0.0094,-0.001,-0.0001,0.0007,0.0054,-0.0078,0,0,0,0,0,0.0241,0.0245,0.0215,0.0226,0.022,0.0182,0.0174,0.0153,0.0122,0.0108,0.0068,0.0027,-0.0003,-0.0017,-0.0055,-0.006,-0.0055,-0.0053,-0.0045,-0.0037,-0.0007,0.0012,0.0026,-0.0125,-0.0125,-0.0125,0,0,0.0259,0.0247,0.0249,0.0233,0.0215,0.0217,0.0175,0.0172,0.0176,0.0102,0.0095,0.005,-0.0001,-0.0011,-0.0021,-0.0036,0.0011,-0.0036,-0.0029,-0.0002,0.0014,0.0029,0.0043,-0.0124,-0.0124,-0.0124,0,0,0.0303,0.029,0.0306,0.0292,0.0271,0.0251,0.0254,0.0222,0.021,0.019,0.0145,0.0124,0.0064,0.005,0.0031,0.0061,0.0046,0.0039,0.0128,0.0146,0.016,0.0172,0.0218,0.0234,0.0051,0.0051,0.0051,0,0.0326,0.034,0.0309,0.032,0.0319,0.0272,0.0292,0.0276,0.0236,0.0244,0.0198,0.0152,0.0101,0.012,0.0125,0.0085,0.0099,0.01,0.0161,0.0173,0.0183,0.0228,0.0243,0.0056,0.0056,0.0055,0.0055,0,0.0374,0.0383,0.0396,0.0391,0.0389,0.0399,0.0374,0.0374,0.0346,0.033,0.0331,0.0267,0.0252,0.0224,0.018,0.0234,0.0224,0.0167,0.0148,0.0206,0.0248,0.0263,0.0064,0.0062,0.0061,0.0059,0,0,0.0426,0.0429,0.0432,0.0443,0.0428,0.0435,0.0455,0.0466,0.0502,0.0452,0.0502,0.0437,0.0419,0.0397,0.0349,0.0359,0.0437,0.0305,0.0304,0.0374,0.051,0.0448,0.0457,0.0391,0.0394,0.0396,0.0519,0,0.0469,0.0513,0.05,0.0539,0.056,0.0536,0.0564,0.057,0.0565,0.06,0.0562,0.0577,0.0481,0.0491,0.0487,0.0449,0.0476,0.0411,0.0425,0.0426,0.0381,0.0471,0.0404,0.0502,0.0532,0.0535,0.0536,0,0.0514,0.054,0.0593,0.0624,0.0634,0.065,0.0702,0.0725,0.0762,0.0763,0.078,0.0752,0.0781,0.0677,0.068,0.0645,0.06,0.056,0.0562,0.048,0.039,0.0442,0.0527,0.0307,0.0558,0.0556,0.0554,0,0.0567,0.0602,0.0652,0.0658,0.0689,0.0717,0.074,0.0778,0.0831,0.0892,0.0956,0.0943,0.0994,0.0915,0.083,0.077,0.0834,0.0733,0.0645,0.0641,0.0576,0.0561,0.0469,0.075,0.075,0.0749,0.0749,0,0.0617,0.0652,0.0679,0.0706,0.0773,0.0779,0.0867,0.0889,0.0971,0.11,0.106,0.1182,0.1059,0.107,0.0931,0.0859,0.092,0.0704,0.0677,0.0611,0.0599,0.0393,0.0279,0.0754,0.0753,0.0752,0.0751,0,0.0658,0.0677,0.0733,0.078,0.0797,0.0849,0.0936,0.1019,0.1091,0.1271,0.1315,0.1401,0.1432,0.1287,0.121,0.1034,0.0803,0.0878,0.0824,0.0786,0.0441,0.0336,0.027,0.0182,0.0804,0.0803,0.0803,0,0.0683,0.0721,0.0784,0.083,0.0848,0.0924,0.0998,0.1065,0.1189,0.1434,0.156,0.1653,0.1759,0.1606,0.1293,0.1057,0.0851,0.0831,0.0673,0.0451,0.0315,0.0241,0.0166,0.0651,0.0649,0.0648,0.0647,0,0.0735,0.0756,0.0803,0.0904,0.0977,0.1078,0.1204,0.1319,0.1488,0.167,0.196,0.2065,0.1929,0.1688,0.1321,0.1113,0.0641,0.0791,0.0577,0.0216,0.0119,0.001,0.0559,0.0633,0.0635,0.0636,0.0636,0.0637,0.077,0.0817,0.0897,0.0988,0.1092,0.1268,0.1395,0.1581,0.1825,0.2154,0.2239,0.2422,0.1989,0.1481,0.1184,0.052,0.0569,0.0299,0.0211,0.0172,0.0014,0.0546,0.0556,0.0557,0.0558,0.0559,0.0559,0,0.0824,0.0893,0.0986,0.1129,0.1278,0.1316,0.1569,0.1743,0.2078,0.2329,0.2564,0.239,0.1865,0.1288,0.0411,0.0001,-0.0154,-0.0218,-0.0356,-0.0392,0.0095,0.0007,-0.0121,-0.0121,-0.0121,-0.012,-0.012,-0.012,0.0863,0.0966,0.1022,0.1275,0.1394,0.1633,0.1798,0.2062,0.2274,0.2559,0.2615,0.2621,0.2089,0.0642,-0.0327,-0.0529,-0.0812,-0.0869,-0.0957,-0.0683,-0.0643,-0.0605,-0.0717,-0.0995,-0.0996,-0.1434,-0.1438,-0.1442]}],[{"header":{"parameterUnit":"m.s-1","parameterCategory":2,"la1":30.2991,"la2":30.254,"lo1":-89.0895,"lo2":-89.0444,"dy":0.0017,"dx":0.0017,"nx":28,"ny":28,"refTime":"2025-09-17T03:00:00:Z","depth":"2","parameterNumber":2,"parameterNumberName":"U-component_of_CURRENTS"},"data":[0,0,0,0,0,0,0,0,0,0,0,0,0,0,0,0,0,0,0,0,0,0,0,0,0,0,0,0,0,0,0,0,0,0,0,0,0,0,0,0,0,0,0,0,0,0,0,0,0,0,0,0,0,0,0,0,0,0,0.2419,0.242,0,0.249,0.2491,0.2491,0.2614,0.2617,0.2619,0.2622,0.278,0.2782,0.2784,0,0,0,0,0,0,0,0,0,0,0,0,0,0.2324,0.2325,0.2419,0.242,0.2421,0.249,0.2491,0.2491,0.2614,0.2617,0.262,0.2623,0.278,0.2782,0.2784,0,0,0,0,0,0,0,0,0,0,0,0,0,0.2374,0.2326,0.2418,0.2492,0.25,0.249,0.2491,0.2491,0.2613,0.2617,0.2621,0.2624,0.2779,0.2782,0.2785,0.2724,0,0,0.2793,0.2794,0,0,0,0,0,0,0,0,0.2372,0.2378,0.248,0.2487,0.2496,0.255,0.2516,0.2575,0.2612,0.2567,0.2622,0.2626,0.271,0.2719,0.2718,0.2731,0.2738,0.2793,0.2795,0.2796,0.2797,0,0,0,0,0,0,0,0.2368,0.2375,0.2444,0.2481,0.2491,0.25,0.2512,0.2526,0.2615,0.2571,0.2581,0.2592,0.2715,0.2715,0.2723,0.2741,0.2793,0.2795,0.2797,0.2798,0.2803,0.2802,0,0,0,0,0,0,0.2364,0.2371,0.2442,0.2446,0.2445,0.2499,0.2512,0.2526,0.2614,0.2631,0.2589,0.2598,0.2709,0.272,0.273,0.2878,0.2796,0.2799,0.28,0.2805,0.2803,0.2801,0,0,0,0,0,0,0.2362,0.237,0.2439,0.2413,0.2423,0.2498,0.2512,0.2526,0.2567,0.2627,0.2646,0.2621,0.2712,0.2726,0.2767,0.2878,0.28,0.2802,0.2807,0.2804,0.2802,0.3038,0,0,0,0,0,0,0.2359,0.2368,0.2378,0.2413,0.2424,0.2466,0.2509,0.2524,0.2566,0.258,0.2659,0.2676,0.2716,0.2763,0.277,0.288,0.2804,0.2809,0.2806,0.2803,0.3032,0.3044,0.3054,0,0,0,0,0,0.2355,0.236,0.2378,0.2387,0.2435,0.2466,0.2473,0.2536,0.2564,0.2586,0.2629,0.2676,0.275,0.2763,0.2772,0.2887,0.281,0.2806,0.2803,0.3027,0.3041,0.3054,0,0,0,0,0,0,0.2324,0.2374,0.2395,0.2415,0.2451,0.249,0.2511,0.254,0.2584,0.2605,0.2659,0.2677,0.2757,0.2734,0.2747,0.2856,0.2785,0.2783,0.2952,0.2965,0.2976,0.3007,0.2807,0,0,0,0,0,0.2316,0.2337,0.2382,0.2397,0.2419,0.2461,0.2481,0.2521,0.2561,0.2587,0.2648,0.2684,0.2734,0.2782,0.2797,0.2856,0.2834,0.2917,0.2929,0.294,0.2956,0.2997,0.3018,0.279,0.279,0.279,0,0,0.2313,0.2335,0.2353,0.2392,0.2424,0.2471,0.2485,0.2524,0.2595,0.2592,0.2704,0.2723,0.2742,0.2832,0.2865,0.2849,0.2983,0.2935,0.2947,0.2957,0.2996,0.302,0.3041,0.2788,0.2788,0.2789,0,0,0.2321,0.2334,0.2369,0.2403,0.2452,0.2475,0.2492,0.2551,0.2621,0.2683,0.2723,0.2802,0.2843,0.2932,0.2967,0.3021,0.3025,0.301,0.3143,0.3184,0.3206,0.3225,0.3223,0.324,0.3041,0.3041,0.3041,0,0.2325,0.2366,0.2381,0.2428,0.2477,0.2486,0.2553,0.2602,0.2676,0.2744,0.274,0.2864,0.2909,0.3062,0.3106,0.3073,0.3053,0.3126,0.3213,0.3231,0.3247,0.3239,0.3255,0.3052,0.3051,0.305,0.3049,0,0.2367,0.2413,0.2432,0.2504,0.2552,0.2594,0.2673,0.2734,0.2791,0.2852,0.2993,0.3045,0.3131,0.3169,0.3179,0.3329,0.3264,0.3221,0.3215,0.3287,0.3269,0.3283,0.3068,0.3064,0.306,0.3058,0,0,0.2352,0.2451,0.246,0.2531,0.2602,0.2652,0.2763,0.2878,0.2977,0.3053,0.3194,0.3323,0.3349,0.3382,0.3422,0.3491,0.3619,0.3426,0.3423,0.3486,0.3678,0.3516,0.3513,0.3602,0.3606,0.3608,0.3623,0,0.2392,0.2493,0.2541,0.2662,0.2732,0.28,0.2915,0.3021,0.3101,0.3221,0.3318,0.3421,0.3432,0.3493,0.3581,0.3592,0.3661,0.3616,0.3541,0.3539,0.3441,0.3526,0.3291,0.3274,0.3635,0.3637,0.3639,0,0.2426,0.2491,0.2619,0.2784,0.2829,0.2916,0.3097,0.3201,0.3348,0.341,0.3525,0.3551,0.3703,0.3658,0.3778,0.3743,0.3738,0.3735,0.3734,0.3512,0.3401,0.3251,0.3283,0.366,0.3658,0.3656,0.3655,0,0.2419,0.2557,0.2666,0.2716,0.2888,0.3004,0.3112,0.3274,0.335,0.352,0.3541,0.371,0.376,0.3814,0.3818,0.3804,0.3884,0.3849,0.3698,0.3683,0.3431,0.3388,0.3922,0.3922,0.3922,0.3922,0.3922,0,0.2456,0.2548,0.2681,0.275,0.2889,0.3048,0.3201,0.3323,0.3461,0.3529,0.3639,0.3696,0.3796,0.3833,0.3851,0.3808,0.3909,0.3738,0.3694,0.3495,0.346,0.3737,0.3716,0.3922,0.3922,0.3922,0.3922,0,0.2461,0.2544,0.265,0.2829,0.2889,0.3003,0.3176,0.3275,0.3416,0.3496,0.3528,0.3672,0.3729,0.3774,0.3848,0.3804,0.3802,0.3754,0.3491,0.3416,0.3566,0.3555,0.3602,0.3597,0.3592,0.3588,0.3585,0,0.2467,0.2518,0.2646,0.2699,0.2796,0.295,0.3043,0.3219,0.3296,0.3465,0.3494,0.3578,0.3592,0.363,0.361,0.358,0.3683,0.3317,0.3258,0.359,0.3543,0.3539,0.3534,0.3014,0.3006,0.3,0.2995,0,0.245,0.2485,0.2583,0.2651,0.2755,0.2819,0.2983,0.2989,0.3185,0.3215,0.3293,0.3317,0.3388,0.3272,0.3242,0.3204,0.3306,0.3184,0.3631,0.3116,0.3032,0.2987,0.3002,0.294,0.2946,0.295,0.2953,0.2955,0.2406,0.2441,0.2531,0.2595,0.2669,0.2685,0.2685,0.2798,0.2813,0.2846,0.3018,0.2985,0.3044,0.2874,0.2789,0.2745,0.2954,0.2841,0.2862,0.2889,0.2804,0.2715,0.2546,0.2549,0.2552,0.2554,0.2556,0,0.2328,0.2396,0.246,0.2492,0.2461,0.2576,0.262,0.2561,0.2481,0.2596,0.2599,0.24,0.2335,0.2414,0.2269,0.224,0.2249,0.2147,0.2166,0.2222,0.2272,0.2157,0.1727,0.1724,0.1721,0.1719,0,0,0.2307,0.2334,0.2355,0.225,0.2275,0.2217,0.2193,0.2118,0.2152,0.2048,0.2046,0.2226,0.2348,0.201,0.1961,0.1834,0.2013,0.1758,0.2431,0.2512,0.2558,0.2682,0.2567,0,0,0,0,0]},{"header":{"parameterUnit":"m.s-1","parameterCategory":2,"la1":30.2991,"la2":30.254,"lo1":-89.0895,"lo2":-89.0444,"dy":0.0017,"dx":0.0017,"nx":28,"ny":28,"refTime":"2025-09-17T03:00:00:Z","depth":"2","parameterNumber":3,"parameterNumberName":"V-component_of_CURRENTS"},"data":[0,0,0,0,0,0,0,0,0,0,0,0,0,0,0,0,0,0,0,0,0,0,0,0,0,0,0,0,0,0,0,0,0,0,0,0,0,0,0,0,0,0,0,0,0,0,0,0,0,0,0,0,0,0,0,0,0,0,0.0016,0.0016,0,-0.0028,-0.0029,-0.003,-0.0103,-0.0104,-0.0105,-0.0106,-0.0214,-0.0216,-0.0218,0,0,0,0,0,0,0,0,0,0,0,0,0,0.0016,0.0016,0.0016,0.0016,0.0015,-0.0028,-0.0029,-0.003,-0.0103,-0.0104,-0.0105,-0.0106,-0.0213,-0.0216,-0.0218,0,0,0,0,0,0,0,0,0,0,0,0,0,-0.0006,0.0016,0.0016,-0.0023,-0.0027,-0.0028,-0.0029,-0.003,-0.0102,-0.0104,-0.0105,-0.0107,-0.0212,-0.0215,-0.0218,-0.0207,0,0,-0.0227,-0.0229,0,0,0,0,0,0,0,0,-0.0004,-0.0006,-0.0017,-0.002,-0.0024,-0.0058,-0.0068,-0.0091,-0.0102,-0.0078,-0.0106,-0.0107,-0.0164,-0.0171,-0.0181,-0.0212,-0.0217,-0.0228,-0.0229,-0.0231,-0.0231,0,0,0,0,0,0,0,-0.0003,-0.0005,-0.0006,-0.0017,-0.0021,-0.0045,-0.005,-0.0073,-0.0117,-0.008,-0.0085,-0.0082,-0.0167,-0.0178,-0.0184,-0.0219,-0.0227,-0.023,-0.0232,-0.0233,-0.0265,-0.0264,0,0,0,0,0,0,0.0014,-0.0003,-0.0004,-0.0007,-0.0013,-0.0043,-0.0049,-0.0049,-0.0115,-0.0125,-0.0081,-0.0085,-0.0172,-0.018,-0.0188,-0.0232,-0.0231,-0.0233,-0.0235,-0.0266,-0.0264,-0.0263,0,0,0,0,0,0,0.0014,0.0014,-0.0003,-0.0003,-0.0006,-0.0041,-0.0041,-0.0049,-0.0066,-0.0114,-0.0127,-0.009,-0.0173,-0.0184,-0.0211,-0.0235,-0.0235,-0.0237,-0.0267,-0.0265,-0.0264,-0.0285,0,0,0,0,0,0,0.0014,0.0014,0.0016,-0.0001,-0.0005,-0.0003,-0.0039,-0.0049,-0.006,-0.0067,-0.0126,-0.0137,-0.0175,-0.0206,-0.0214,-0.0239,-0.024,-0.0268,-0.0266,-0.0264,-0.0285,-0.0284,-0.0284,0,0,0,0,0,0.0014,0.003,0.0017,0.0016,-0.0,-0.0002,-0.0007,-0.004,-0.0059,-0.0062,-0.0101,-0.0136,-0.02,-0.0207,-0.0217,-0.0243,-0.0269,-0.0267,-0.0264,-0.0286,-0.0285,-0.0284,0,0,0,0,0,0,0.0031,0.0024,0.0009,0.002,0.0009,-0.0013,-0.0014,-0.0033,-0.0065,-0.0073,-0.0126,-0.0139,-0.0171,-0.0186,-0.0193,-0.024,-0.0239,-0.0238,-0.0252,-0.0251,-0.025,-0.023,-0.0242,0,0,0,0,0,0.0038,0.0045,0.0032,0.004,0.0038,0.0013,0.0007,-0.0012,-0.0036,-0.0053,-0.0096,-0.0132,-0.0165,-0.0192,-0.0215,-0.0242,-0.0248,-0.0259,-0.0258,-0.0258,-0.0243,-0.0257,-0.0257,-0.0256,-0.0256,-0.0257,0,0,0.0047,0.0046,0.0048,0.0044,0.0032,0.0037,0.0004,0.0004,-0.0006,-0.0057,-0.0089,-0.0127,-0.0165,-0.0202,-0.0217,-0.0225,-0.0264,-0.0255,-0.0255,-0.024,-0.0255,-0.0256,-0.0256,-0.0255,-0.0255,-0.0256,0,0,0.0076,0.0068,0.0082,0.0077,0.0071,0.0059,0.0062,0.0037,0.0009,-0.0012,-0.0058,-0.0105,-0.0147,-0.0197,-0.0222,-0.022,-0.0251,-0.0227,-0.0226,-0.0241,-0.0242,-0.0243,-0.0273,-0.0276,-0.0238,-0.0238,-0.0238,0,0.0083,0.0105,0.0086,0.0098,0.0099,0.0072,0.0085,0.0061,0.0026,0.0007,-0.0019,-0.0096,-0.0146,-0.0198,-0.0213,-0.0225,-0.0232,-0.024,-0.0243,-0.0243,-0.0244,-0.0274,-0.0277,-0.0239,-0.0239,-0.0239,-0.0239,0,0.0122,0.0137,0.0149,0.0152,0.0145,0.0161,0.0128,0.0113,0.0079,0.0049,-0.0005,-0.0077,-0.0124,-0.016,-0.0197,-0.0232,-0.0237,-0.0237,-0.0254,-0.0246,-0.0278,-0.0281,-0.024,-0.024,-0.0239,-0.0239,0,0,0.0145,0.0172,0.0175,0.0185,0.0179,0.0178,0.0166,0.0148,0.0144,0.0078,0.0061,-0.0043,-0.0087,-0.0116,-0.0181,-0.0217,-0.026,-0.0233,-0.0233,-0.0276,-0.0299,-0.0311,-0.0316,-0.026,-0.026,-0.026,-0.0329,0,0.0182,0.023,0.0221,0.0251,0.0272,0.024,0.023,0.0201,0.0171,0.015,0.0056,0.0018,-0.007,-0.0102,-0.0156,-0.0205,-0.0263,-0.0241,-0.0286,-0.0287,-0.0311,-0.0318,-0.0279,-0.0336,-0.0332,-0.0333,-0.0333,0,0.0219,0.0251,0.0296,0.0306,0.0308,0.0309,0.0298,0.0287,0.0248,0.0221,0.016,0.0105,0.0022,-0.0039,-0.0156,-0.0132,-0.0222,-0.0277,-0.028,-0.028,-0.0304,-0.0337,-0.0342,-0.0338,-0.0338,-0.0337,-0.0337,0,0.0255,0.0293,0.0335,0.0342,0.0352,0.0346,0.0338,0.0308,0.0312,0.0273,0.0285,0.0176,0.0149,0.003,-0.0108,-0.0124,-0.0212,-0.0245,-0.0354,-0.0357,-0.0324,-0.0323,-0.0338,-0.0338,-0.0338,-0.0338,-0.0337,0,0.0301,0.0329,0.0356,0.0381,0.0409,0.0384,0.0403,0.0385,0.0383,0.0416,0.0321,0.0339,0.0173,0.0097,-0.0058,-0.0203,-0.0181,-0.035,-0.0371,-0.0332,-0.0331,-0.0322,-0.0319,-0.034,-0.034,-0.0339,-0.0339,0,0.0328,0.0357,0.0406,0.043,0.0433,0.0447,0.0457,0.0482,0.0471,0.0523,0.0519,0.0478,0.0389,0.0203,0.0037,-0.0116,-0.0269,-0.0341,-0.0294,-0.0308,-0.0425,-0.0422,-0.0464,-0.0464,-0.0465,-0.0466,-0.0466,0,0.0353,0.0391,0.0442,0.0475,0.0485,0.0504,0.0528,0.0523,0.0572,0.0619,0.0669,0.0607,0.058,0.0327,0.0063,-0.0209,-0.0262,-0.0366,-0.0404,-0.042,-0.0435,-0.0431,-0.0428,-0.0382,-0.0382,-0.0382,-0.0382,0,0.0397,0.0416,0.0448,0.0523,0.0561,0.0618,0.066,0.0724,0.0752,0.0813,0.091,0.0897,0.0659,0.0434,0.0056,-0.0131,-0.0317,-0.0372,-0.038,-0.0353,-0.0347,-0.0361,-0.0359,-0.038,-0.038,-0.0381,-0.0381,-0.0381,0.0413,0.0445,0.0495,0.0561,0.0628,0.0741,0.0813,0.0891,0.1003,0.1111,0.109,0.1083,0.0781,0.0336,0.0031,-0.029,-0.0307,-0.0433,-0.0432,-0.0431,-0.0405,-0.0401,-0.044,-0.0441,-0.0441,-0.0442,-0.0442,0,0.0429,0.0468,0.0533,0.0628,0.0729,0.0755,0.0912,0.1006,0.1174,0.124,0.1294,0.1035,0.0758,0.0422,-0.0044,-0.0348,-0.037,-0.0437,-0.0397,-0.0397,-0.0397,-0.0368,-0.0395,-0.0396,-0.0396,-0.0396,0,0,0.0434,0.0489,0.053,0.0697,0.0781,0.0939,0.1054,0.1204,0.1302,0.1379,0.1368,0.1273,0.0866,0.0536,0.0133,-0.0117,-0.0186,-0.017,-0.018,-0.0086,-0.0081,-0.0373,-0.0326,0,0,0,0,0]}],[{"header":{"parameterUnit":"m.s-1","parameterCategory":2,"la1":30.2991,"la2":30.254,"lo1":-89.0895,"lo2":-89.0444,"dy":0.0017,"dx":0.0017,"nx":28,"ny":28,"refTime":"2025-09-17T03:00:00:Z","depth":"4","parameterNumber":2,"parameterNumberName":"U-component_of_CURRENTS"},"data":[0,0,0,0,0,0,0,0,0,0,0,0,0,0,0,0,0,0,0,0,0,0,0,0,0,0,0,0,0,0,0,0,0,0,0,0,0,0,0,0,0,0,0,0,0,0,0,0,0,0,0,0,0,0,0,0,0,0,0.1177,0.1177,0,0.1224,0.1224,0.1225,0.1241,0.1241,0.1241,0.1241,0.1293,0.1295,0.1296,0,0,0,0,0,0,0,0,0,0,0,0,0,0.1113,0.1114,0.1177,0.1177,0.1178,0.1224,0.1225,0.1225,0.1241,0.1241,0.1241,0.1241,0.1293,0.1294,0.1296,0,0,0,0,0,0,0,0,0,0,0,0,0,0.1148,0.1114,0.1177,0.1193,0.1195,0.1224,0.1225,0.1225,0.1241,0.1241,0.1241,0.1241,0.1292,0.1294,0.1296,0.1312,0,0,0.1303,0.1304,0,0,0,0,0,0,0,0,0.1146,0.115,0.119,0.1192,0.1194,0.1228,0.1221,0.1255,0.1241,0.1222,0.1241,0.1241,0.1273,0.1276,0.1284,0.1315,0.1317,0.1303,0.1305,0.1306,0.1306,0,0,0,0,0,0,0,0.1143,0.1148,0.1194,0.119,0.1193,0.1202,0.1206,0.1228,0.1247,0.1224,0.1226,0.1233,0.1274,0.1282,0.1285,0.1318,0.1303,0.1305,0.1307,0.1307,0.1444,0.1446,0,0,0,0,0,0,0.1139,0.1146,0.1193,0.1196,0.117,0.1203,0.1208,0.1216,0.1246,0.1251,0.1233,0.1233,0.1278,0.1283,0.1287,0.1364,0.1306,0.1308,0.1309,0.1442,0.1444,0.1447,0,0,0,0,0,0,0.1138,0.1143,0.1191,0.1173,0.1179,0.1204,0.1213,0.1217,0.1252,0.1253,0.1258,0.1266,0.1278,0.1284,0.1324,0.1364,0.1309,0.1311,0.1439,0.1442,0.1446,0.1481,0,0,0,0,0,0,0.1136,0.1142,0.1161,0.1172,0.118,0.1217,0.1213,0.1218,0.1255,0.1257,0.1283,0.1286,0.1278,0.1321,0.1326,0.1366,0.1312,0.1436,0.144,0.1445,0.1477,0.1485,0.1492,0,0,0,0,0,0.1133,0.1147,0.1162,0.1168,0.12,0.1217,0.1223,0.1239,0.1257,0.1271,0.1293,0.1287,0.1353,0.1324,0.133,0.1371,0.1434,0.1439,0.1444,0.1473,0.1484,0.1492,0,0,0,0,0,0,0.1125,0.1151,0.1166,0.1188,0.1209,0.1221,0.1243,0.126,0.129,0.1304,0.1307,0.1312,0.136,0.1369,0.1337,0.1427,0.1397,0.1404,0.1417,0.1427,0.1435,0.1416,0.1314,0,0,0,0,0,0.1135,0.1156,0.1178,0.1198,0.1214,0.1239,0.1257,0.127,0.1292,0.1307,0.1327,0.1358,0.1384,0.1407,0.1424,0.1475,0.1476,0.1511,0.1518,0.1525,0.1517,0.1588,0.16,0.1464,0.1464,0.1464,0,0,0.1136,0.1155,0.1167,0.1199,0.1222,0.1241,0.125,0.1283,0.1306,0.1309,0.1358,0.1381,0.1402,0.1448,0.1474,0.1463,0.1559,0.1531,0.1536,0.1524,0.1594,0.1607,0.1619,0.1468,0.1467,0.1466,0,0,0.1143,0.1172,0.1193,0.1211,0.1252,0.1264,0.1282,0.1316,0.1342,0.1384,0.1399,0.1443,0.1486,0.1507,0.1523,0.1591,0.1591,0.1618,0.1648,0.1718,0.1729,0.1739,0.1725,0.1733,0.163,0.163,0.163,0,0.115,0.1173,0.1201,0.1224,0.1244,0.1278,0.1303,0.1329,0.1372,0.1409,0.1403,0.1487,0.1507,0.1566,0.1591,0.1606,0.1626,0.1605,0.1726,0.1736,0.1746,0.1729,0.1738,0.1632,0.1632,0.1632,0.1632,0,0.1158,0.1189,0.1204,0.1243,0.1271,0.1295,0.1333,0.1378,0.1417,0.1446,0.1517,0.1536,0.1591,0.1614,0.162,0.1711,0.1693,0.1719,0.1695,0.1761,0.1739,0.1748,0.1636,0.1635,0.1634,0.1634,0,0,0.1144,0.12,0.121,0.1233,0.1285,0.1304,0.1362,0.1422,0.1476,0.1513,0.158,0.1623,0.1653,0.1673,0.1699,0.1755,0.1829,0.1776,0.1779,0.1745,0.1939,0.1835,0.1833,0.1897,0.1899,0.1902,0.1883,0,0.1147,0.1184,0.122,0.1261,0.1283,0.134,0.1385,0.145,0.1511,0.1584,0.1625,0.1695,0.1671,0.1723,0.1768,0.1833,0.186,0.1827,0.1893,0.1893,0.1781,0.1844,0.191,0.1889,0.1891,0.1893,0.1894,0,0.1143,0.117,0.1212,0.1276,0.1295,0.1332,0.1432,0.1478,0.1588,0.165,0.172,0.176,0.1838,0.1822,0.1904,0.1895,0.1914,0.1936,0.1937,0.1832,0.1806,0.1821,0.1909,0.1907,0.1906,0.1905,0.1904,0,0.1104,0.1165,0.12,0.1217,0.1293,0.1347,0.1401,0.1508,0.1567,0.1716,0.1777,0.1857,0.192,0.1963,0.1992,0.1982,0.2069,0.2063,0.1955,0.1944,0.2024,0.2014,0.2112,0.2112,0.2112,0.2112,0.2113,0,0.1075,0.11,0.1191,0.1206,0.1261,0.1333,0.1417,0.1503,0.1622,0.1692,0.1808,0.1863,0.1976,0.2026,0.2027,0.2004,0.2095,0.1952,0.1951,0.2033,0.2026,0.2026,0.2017,0.2112,0.2112,0.2112,0.2112,0,0.1012,0.1065,0.111,0.121,0.1244,0.1288,0.141,0.1459,0.1602,0.1702,0.176,0.1909,0.1991,0.2035,0.2124,0.2045,0.2047,0.2014,0.2055,0.2058,0.1849,0.1841,0.1874,0.187,0.1868,0.1865,0.1863,0,0.0983,0.1002,0.1108,0.1131,0.1179,0.1256,0.1299,0.1443,0.1501,0.1696,0.1725,0.1875,0.195,0.1952,0.203,0.2014,0.1995,0.1953,0.1921,0.1837,0.1834,0.1831,0.1828,0.1858,0.1858,0.1857,0.1856,0,0.0921,0.0971,0.0996,0.1061,0.1111,0.1155,0.1239,0.1281,0.1443,0.1574,0.1677,0.1742,0.1828,0.189,0.191,0.189,0.1965,0.1921,0.1926,0.1896,0.1819,0.1818,0.1818,0.1846,0.1848,0.1848,0.1849,0,0.0874,0.0871,0.092,0.0964,0.102,0.1047,0.1107,0.1182,0.1263,0.1488,0.1517,0.1675,0.1818,0.1824,0.1832,0.1827,0.1789,0.1709,0.1724,0.1736,0.1705,0.1588,0.1544,0,0,0,0,0,0.0813,0.0791,0.0821,0.0859,0.0918,0.0958,0.1054,0.1119,0.1285,0.1318,0.1423,0.1503,0.1579,0.1658,0.1623,0.1744,0.1774,0.1692,0.1685,0.179,0.1802,0.1781,0,0,0,0,0,0,0.0756,0.0763,0.0774,0.0768,0.079,0.0836,0.0901,0.1006,0.1041,0.1222,0.1276,0.1402,0.1495,0.1589,0.1596,0.1613,0.1573,0.1785,0.1781,0.1783,0.1794,0.1803,0.1786,0,0,0,0,0]},{"header":{"parameterUnit":"m.s-1","parameterCategory":2,"la1":30.2991,"la2":30.254,"lo1":-89.0895,"lo2":-89.0444,"dy":0.0017,"dx":0.0017,"nx":28,"ny":28,"refTime":"2025-09-17T03:00:00:Z","depth":"4","parameterNumber":3,"parameterNumberName":"V-component_of_CURRENTS"},"data":[0,0,0,0,0,0,0,0,0,0,0,0,0,0,0,0,0,0,0,0,0,0,0,0,0,0,0,0,0,0,0,0,0,0,0,0,0,0,0,0,0,0,0,0,0,0,0,0,0,0,0,0,0,0,0,0,0,0,0.0133,0.0133,0,0.0108,0.0107,0.0107,0.0103,0.0103,0.0103,0.0104,0.0077,0.0076,0.0075,0,0,0,0,0,0,0,0,0,0,0,0,0,0.0127,0.0127,0.0133,0.0133,0.0133,0.0108,0.0107,0.0107,0.0103,0.0103,0.0103,0.0104,0.0077,0.0076,0.0075,0,0,0,0,0,0,0,0,0,0,0,0,0,0.0117,0.0127,0.0133,0.0129,0.0128,0.0108,0.0107,0.0107,0.0103,0.0103,0.0104,0.0104,0.0078,0.0076,0.0075,0.0055,0,0,0.007,0.0069,0,0,0,0,0,0,0,0,0.0118,0.0117,0.013,0.0129,0.0128,0.011,0.0095,0.009,0.0102,0.0111,0.0104,0.0104,0.0088,0.0086,0.0078,0.0054,0.0052,0.007,0.0069,0.0068,0.0068,0,0,0,0,0,0,0,0.0118,0.0118,0.0122,0.0129,0.0129,0.011,0.011,0.0094,0.0096,0.011,0.011,0.0109,0.0088,0.008,0.0078,0.0052,0.007,0.0068,0.0067,0.0067,0.0018,0.0018,0,0,0,0,0,0,0.0126,0.0119,0.0123,0.0121,0.0126,0.011,0.011,0.0114,0.0096,0.0094,0.0109,0.0109,0.0082,0.0079,0.0077,0.0077,0.0068,0.0067,0.0066,0.0019,0.0018,0.0018,0,0,0,0,0,0,0.0126,0.0127,0.0124,0.012,0.0119,0.011,0.0115,0.0114,0.0112,0.0095,0.0093,0.0109,0.0082,0.0079,0.007,0.0075,0.0066,0.0065,0.0019,0.0019,0.0018,0.0061,0,0,0,0,0,0,0.0126,0.0127,0.0131,0.0121,0.0119,0.0121,0.0115,0.0113,0.011,0.0111,0.0095,0.0093,0.0082,0.0072,0.0068,0.0072,0.0063,0.002,0.0019,0.0018,0.006,0.0062,0.0063,0,0,0,0,0,0.0126,0.0135,0.0132,0.0132,0.0126,0.0121,0.0118,0.0113,0.011,0.0112,0.0101,0.0094,0.0065,0.0071,0.0066,0.007,0.002,0.0019,0.0018,0.0059,0.0061,0.0063,0,0,0,0,0,0,0.0132,0.0135,0.0131,0.0139,0.0133,0.0121,0.0121,0.0115,0.0106,0.0108,0.0091,0.0088,0.0082,0.0065,0.0072,0.0051,0.004,0.0038,0.0072,0.0074,0.0076,0.0073,0.0062,0,0,0,0,0,0.0135,0.0144,0.0138,0.0144,0.0143,0.0131,0.0127,0.0125,0.0116,0.0113,0.0101,0.0085,0.0072,0.0066,0.0051,0.0041,0.0002,0.0037,0.0039,0.0041,0.0034,-0.0028,-0.0033,0.0015,0.0015,0.0015,0,0,0.0138,0.0141,0.0144,0.0145,0.014,0.0146,0.013,0.0131,0.0136,0.0111,0.0112,0.0092,0.007,0.0062,0.0057,0.0051,0.0008,0.004,0.0042,0.0034,-0.003,-0.0035,-0.0039,0.0015,0.0015,0.0015,0,0,0.0153,0.0152,0.0165,0.0164,0.0163,0.0157,0.016,0.015,0.0147,0.0141,0.0125,0.0103,0.0088,0.0068,0.0057,0.0055,0.002,0.0055,0.0064,0.0004,-0.0,-0.0005,-0.0051,-0.006,0.0056,0.0056,0.0056,0,0.0156,0.0174,0.0166,0.0179,0.0184,0.0166,0.0181,0.0172,0.0161,0.0154,0.0149,0.0102,0.0087,0.0064,0.0068,0.0059,0.0024,0.0063,0.0007,0.0001,-0.0004,-0.0051,-0.0061,0.0058,0.0058,0.0058,0.0058,0,0.0183,0.0196,0.0203,0.0217,0.0218,0.0227,0.022,0.0215,0.0205,0.019,0.0164,0.0129,0.0098,0.0091,0.0083,0.0042,0.003,0.0018,0.0004,-0.0006,-0.0055,-0.0066,0.0061,0.006,0.006,0.0059,0,0,0.0194,0.0219,0.0222,0.024,0.0242,0.025,0.0252,0.0246,0.0246,0.0214,0.0197,0.0162,0.0129,0.0112,0.0087,0.0038,-0.0022,0.0019,0.0015,-0.0022,-0.0147,-0.0119,-0.013,-0.0042,-0.0044,-0.0046,-0.0162,0,0.0217,0.0257,0.026,0.0293,0.0313,0.03,0.0304,0.0294,0.0275,0.0252,0.0194,0.0172,0.0142,0.0129,0.007,0.0005,-0.0052,0.0011,-0.0137,-0.0142,-0.0111,-0.0142,-0.0052,-0.0171,-0.0173,-0.0175,-0.0177,0,0.0244,0.0269,0.031,0.0339,0.0346,0.0361,0.0363,0.0366,0.0323,0.0305,0.0252,0.0207,0.0136,0.011,-0.0035,0.0009,-0.0069,-0.0128,-0.0134,-0.0134,-0.0136,-0.0163,-0.0199,-0.0197,-0.0195,-0.0194,-0.0193,0,0.0263,0.0304,0.0342,0.0353,0.0377,0.0392,0.0402,0.038,0.0385,0.0336,0.0322,0.0222,0.0177,0.0057,-0.0061,-0.0052,-0.0225,-0.023,-0.0287,-0.0285,-0.0293,-0.0287,-0.035,-0.035,-0.035,-0.035,-0.0349,0,0.0288,0.0317,0.0359,0.038,0.0422,0.0427,0.0457,0.0446,0.0428,0.0429,0.0352,0.0318,0.016,0.005,-0.0066,-0.0209,-0.0237,-0.0297,-0.032,-0.0271,-0.0261,-0.0301,-0.0294,-0.0354,-0.0353,-0.0352,-0.0351,0,0.0299,0.0325,0.0371,0.0415,0.0434,0.0464,0.0508,0.0521,0.0503,0.0496,0.0483,0.0377,0.0237,0.0079,-0.0117,-0.0201,-0.0345,-0.039,-0.0321,-0.0335,-0.0366,-0.0355,-0.0471,-0.0471,-0.0471,-0.0471,-0.0471,0,0.031,0.0337,0.04,0.0434,0.0458,0.0509,0.0541,0.0554,0.057,0.0532,0.0525,0.04,0.0312,0.0056,-0.0111,-0.0339,-0.0365,-0.0436,-0.0412,-0.0372,-0.0382,-0.0371,-0.036,-0.0472,-0.0472,-0.0472,-0.0472,0,0.0326,0.0347,0.0381,0.0453,0.0504,0.0562,0.0612,0.0633,0.064,0.0623,0.0558,0.0427,0.0268,0.0066,-0.0108,-0.0271,-0.0387,-0.0438,-0.0439,-0.0417,-0.0374,-0.0381,-0.0371,-0.0472,-0.0472,-0.0472,-0.0472,0,0.033,0.0355,0.0403,0.0467,0.0533,0.0596,0.0626,0.0649,0.0664,0.063,0.0603,0.0436,0.0331,0.01,-0.0063,-0.0216,-0.0253,-0.0293,-0.0302,-0.0304,-0.0213,-0.0131,-0.0186,0,0,0,0,0,0.033,0.0363,0.042,0.0488,0.0554,0.0597,0.0662,0.0685,0.0699,0.0663,0.0639,0.0494,0.0256,0.0144,-0.0005,-0.0072,-0.0285,-0.0251,-0.0336,-0.0474,-0.0474,-0.0393,0,0,0,0,0,0,0.0331,0.0376,0.0411,0.0496,0.0548,0.0622,0.0669,0.068,0.0665,0.0652,0.0524,0.0463,0.0224,0.0335,-0.001,-0.0058,-0.0128,-0.0367,-0.0369,-0.0474,-0.0474,-0.0474,-0.039,0,0,0,0,0]}]]